Dickinson, ND

10:09 AM MDT on July 26, 2017 (GMT -0600)
Dickinson Municipal

Weather History for KDIK - October, 2014

Change the Weather History Date:

Monday, October 13, 2014

  Actual Average Record
Temperature  
Mean Temperature 49 °F 45 °F  
Max Temperature 63 °F 58 °F 87 °F (1958)
Min Temperature 34 °F 32 °F 15 °F (1909)
Degree Days  
Heating Degree Days 16 20  
Month to date heating degree days 238 226  
Since 1 July heating degree days 601 580  
Cooling Degree Days 0 0  
Month to date cooling degree days 0 0  
Year to date cooling degree days 256 418  
Moisture  
Dew Point 33 °F    
Average Humidity 61    
Maximum Humidity 89    
Minimum Humidity 32    
Precipitation  
Precipitation 0.00 in 0.04 in 1.46 in (1911)
Month to date precipitation 0.35 0.58  
Year to date precipitation 21.48 14.34  
Sea Level Pressure  
Sea Level Pressure 30.03 in    
Wind  
Wind Speed 9 mph (West)    
Max Wind Speed 18 mph    
Max Gust Speed 22 mph    
Visibility 10 miles    
Events      
T = Trace of Precipitation, MM = Missing Value Source: NWS Daily Summary

Daily Weather History Graph

Daily Weather History Graph

Search for Another Location

Airport or City:

Trip Planner

Search our weather history database for the weather conditions in past years. The results will help you decide how hot, cold, wet, or windy it might be!

Date:

Astronomy

Oct. 13, 2014 Rise Set
Actual Time 7:06 AM MDT 6:07 PM MDT
Civil Twilight 6:35 AM MDT 6:38 PM MDT
Nautical Twilight 6:00 AM MDT 7:13 PM MDT
Astronomical Twilight 5:25 AM MDT 7:48 PM MDT
Moon 10:08 PM MDT (10/13) 12:34 PM MDT (10/13)
Length of Visible Light 12h 02m
Length of Day
11h 01m
Waning Gibbous, 70% of the Moon is Illuminated
Oct 13
Waning Gibbous
Oct 15
Last Quarter
Oct 23
New
Oct 30
First Quarter
Nov 6
Full

Hourly Weather History & Observations

Time (MDT) Temp. Windchill Dew Point Humidity Pressure Visibility Wind Dir Wind Speed Gust Speed Precip Events Conditions
12:56 AM 39.0 °F 32.3 °F 33.1 °F 79% 29.99 in 10.0 mi West 10.4 mph - N/A   Clear
1:56 AM 35.1 °F 27.4 °F 30.9 °F 85% 30.00 in 10.0 mi West 10.4 mph - N/A   Clear
2:56 AM 37.9 °F 30.0 °F 33.1 °F 83% 29.99 in 10.0 mi West 12.7 mph - N/A   Clear
3:56 AM 34.0 °F 27.2 °F 30.9 °F 89% 30.01 in 10.0 mi West 8.1 mph - N/A   Clear
4:56 AM 36.0 °F 28.5 °F 30.9 °F 82% 30.02 in 10.0 mi West 10.4 mph - N/A   Clear
5:56 AM 36.0 °F 29.6 °F 32.0 °F 86% 30.03 in 10.0 mi West 8.1 mph - N/A   Scattered Clouds
6:56 AM 41.0 °F 34.3 °F 35.1 °F 79% 30.05 in 10.0 mi West 11.5 mph - N/A   Overcast
7:56 AM 41.0 °F 34.7 °F 36.0 °F 82% 30.06 in 10.0 mi West 10.4 mph - N/A   Scattered Clouds
8:56 AM 46.9 °F - 37.0 °F 68% 30.06 in 10.0 mi West 13.8 mph - N/A   Clear
9:56 AM 51.1 °F - 37.9 °F 61% 30.06 in 10.0 mi West 15.0 mph - N/A   Clear
10:56 AM 55.0 °F - 39.0 °F 55% 30.06 in 10.0 mi West 15.0 mph - N/A   Clear
11:56 AM 57.9 °F - 39.0 °F 49% 30.05 in 10.0 mi West 11.5 mph - N/A   Clear
12:56 PM 62.1 °F - 37.9 °F 41% 30.01 in 10.0 mi NW 12.7 mph - N/A   Clear
1:56 PM 62.1 °F - 35.1 °F 37% 30.02 in 10.0 mi NW 11.5 mph - N/A   Clear
2:56 PM 63.0 °F - 32.0 °F 31% 30.01 in 10.0 mi WNW 12.7 mph 17.3 mph N/A   Clear
3:56 PM 62.1 °F - 32.0 °F 32% 30.03 in 10.0 mi WNW 10.4 mph - N/A   Clear
4:56 PM 60.1 °F - 32.0 °F 35% 30.03 in 10.0 mi WNW 9.2 mph - N/A   Clear
5:56 PM 57.0 °F - 33.1 °F 40% 30.03 in 10.0 mi WNW 4.6 mph - N/A   Clear
6:56 PM 48.0 °F - 33.1 °F 56% 30.04 in 10.0 mi West 4.6 mph - N/A   Clear
7:56 PM 44.1 °F 41.5 °F 32.0 °F 63% 30.05 in 10.0 mi West 4.6 mph - N/A   Clear
8:56 PM 44.1 °F 42.5 °F 30.9 °F 60% 30.04 in 10.0 mi West 3.5 mph - N/A   Clear
9:56 PM 39.0 °F 36.8 °F 30.0 °F 70% 30.04 in 10.0 mi SW 3.5 mph - N/A   Clear
10:56 PM 41.0 °F 39.0 °F 30.9 °F 67% 30.03 in 10.0 mi South 3.5 mph - N/A   Clear
11:56 PM 39.0 °F - 30.0 °F 70% 30.02 in 10.0 mi Calm Calm - N/A   Clear